Regional Weather Roundup
Issued by NWS

Home | Current Version | Previous Version | Graphics & Text | Print | Product List | Glossary On
Versions: 1 2 3 4 5 6 7 8 9 10 11 12 13 14 15 16 17 18 19 20 21 22 23 24 25 26 27 28 29 30 31 32 33 34 35 36 37 38 39 40 41 42 43 44 45 46 47 48 49 50
141
ASUS45 KCYS 220210
RWRWY

WYOMING REGIONAL WEATHER ROUNDUP
NATIONAL WEATHER SERVICE CHEYENNE WY
700 PM MST SUN JAN 21 2018

NOTE:  "FAIR" INDICATES FEW OR NO CLOUDS BELOW 12,000 FEET
WITH NO SIGNIFICANT WEATHER AND/OR OBSTRUCTIONS TO VISIBILITY.

WYZ001-220300-
YELLOWSTONE NATIONAL PARK

CITY           SKY/WX    TMP DP  RH WIND       PRES   REMARKS
LK YELLOWSTONE   N/A     -3  -6  87 CALM      30.12R
W YELLOWSTONE  NOT AVBL

$$
WYZ002>013-054>058-071-098>099-220300-
NORTHERN WYOMING

CITY           SKY/WX    TMP DP  RH WIND       PRES   REMARKS
JACKSON        FAIR      13   5  70 NE3       30.14R
CODY           FAIR      23  17  78 CALM      30.01F
GREYBULL       FAIR      23  19  85 CALM      30.08R
WORLAND        FAIR      16  12  84 SE12      30.06F WCI   3
SHERIDAN       FAIR      18  12  77 S5        30.01F WCI  11
BUFFALO        FAIR      24  13  62 SW5       30.01F WCI  18
GILLETTE       FAIR      18  14  84 SW7       30.02S WCI   9
HULETT         FAIR      27  19  74 S3        30.03S
NEWCASTLE      FAIR      25  19  80 N7        30.02S WCI  17

$$
WYZ014>020-022>026-101>103-220300-
CENTRAL WYOMING

CITY           SKY/WX    TMP DP  RH WIND       PRES   REMARKS
BIG PINEY      FAIR      13   5  70 NW13      30.08R WCI  -2
PINEDALE       FAIR       7   5  92 W6        30.08R WCI  -3
DUBOIS         FAIR      21   3  45 W20G26    30.01R WCI   6
LANDER         FAIR      16   7  67 NW6       30.03S WCI   7
RIVERTON       FAIR      15   9  76 SW3       30.05S
CASPER         FAIR      12   8  84 SW13      30.05S WCI  -3
DOUGLAS        FAIR      19  14  81 NW16      30.04S WCI   4

$$
WYZ021-027>030-104>119-220300-
SOUTHERN WYOMING

CITY           SKY/WX    TMP DP  RH WIND       PRES   REMARKS
EVANSTON       CLOUDY    13   8  81 W10       30.16R WCI   0
ROCK SPRINGS   FAIR      13   8  81 SW13      30.09S WCI  -2
DIXON            N/A     14   9  81 CALM      30.10S
RAWLINS        CLOUDY    12   8  84 VRB6      30.04R WCI   3
SARATOGA       CLOUDY    10  10 100 W9        30.04R WCI  -2
LARAMIE        LGT SNOW  15  13  91 NW22      29.94R FOG     WCI  -3
CHEYENNE       LGT SNOW  19  17  92 N18G28    29.92S FOG     WCI   4
TORRINGTON     LGT SNOW  25  23  92 NW18      29.98F FOG     WCI  11

$$




USA.gov is the U.S. government's official web portal to all federal, state and local government web resources and services.